Yokota AB current weather conditions

sailwx.info

Wind from 010 at 5 knots

Air temperature 4.0° C
Visibility: greater than 8.7 NM
Dewpoint -4.0° C
Present weather: Light rain.

Last reported at 2015-Mar-02 23:37 UTC.
Time now 2015-Mar-03 00:39 UTC

Location: N 35°45' E 139°21'.
View on Google Maps.

See reports from other nearby stations

  
Tides and Currents Weather Stations Pressure Air Temp Water Temp Dewpoint Dewpoint Depression Visibility Wind Speed Wind Dir Waves Ship Positions
date/time (UTC)wind fromknots sea level pressurealtimeterstation pressurevisibilityair tempwater tempwave heightnotes
2015-Mar-02 23:37 010 5 8.7 4.0 Light rain.
2015-Mar-02 22:58 360 5 8.7 4.0
2015-Mar-02 22:06 350 5 8.7 3.0
2015-Mar-02 21:58 360 5 8.7 2.0
2015-Mar-02 20:58 340 3 8.7 1.0
2015-Mar-02 19:58 350 4 8.7 1.0
2015-Mar-02 18:58 320 3 8.7 1.0
2015-Mar-02 17:58 310 3 8.7 3.0
2015-Mar-02 16:58 8.7 3.0
2015-Mar-02 15:58 360 2 8.7 2.0
2015-Mar-02 14:58 8.7 2.0
2015-Mar-02 13:58 130 2 8.7 3.0
2015-Mar-02 12:58 8.7 3.0
2015-Mar-02 11:58 020 4 8.7 4.0
2015-Mar-02 10:58 010 10 8.7 6.0
2015-Mar-02 09:58 040 5 8.7 6.0
2015-Mar-02 08:58 020 8 8.7 8.0
2015-Mar-02 07:58 020 10 8.710.0
2015-Mar-02 06:58 060 16 8.711.0
2015-Mar-02 06:22 050 14 gusting 20 8.712.0
2015-Mar-02 06:13 100 11 gusting 17 8.712.0
2015-Mar-02 05:58 030 14 8.713.0
2015-Mar-02 05:16 040 14 8.714.0
2015-Mar-02 04:58 360 11 gusting 18 8.714.0
2015-Mar-02 03:58 010 16 gusting 22 8.713.0
2015-Mar-02 02:58 360 17 gusting 23 8.712.0
2015-Mar-02 01:58 350 20 gusting 27 8.711.0
2015-Mar-02 00:58 360 22 gusting 27 8.710.0
2015-Mar-01 23:58 360 14 gusting 20 8.710.0
2015-Mar-01 22:58 220 4 8.7 7.0
2015-Mar-01 21:58 300 4 8.7 4.0
2015-Mar-01 20:58 360 7 8.7 5.0
2015-Mar-01 19:58 350 10 8.7 6.0
2015-Mar-01 18:58 340 14 gusting 19 8.7 7.0
2015-Mar-01 17:58 330 14 gusting 20 8.7 7.0
2015-Mar-01 16:58 340 8 8.7 6.0
2015-Mar-01 15:58 360 9 8.7 6.0
2015-Mar-01 14:58 360 14 gusting 20 8.7 8.0
2015-Mar-01 13:58 310 9 gusting 20 8.7 8.0
2015-Mar-01 12:59 010 9 8.7 7.0
2015-Mar-01 12:58 010 9 8.7 7.0 Light drizzle.
2015-Mar-01 12:49 360 6 8.7 6.0 Light drizzle.
2015-Mar-01 12:35 360 7 8.7 6.0
2015-Mar-01 12:25 360 9 8.7 6.0 Light rain.
2015-Mar-01 11:59 010 10 8.7 6.0
2015-Mar-01 11:58 010 9 8.7 6.0 Light rain.
2015-Mar-01 10:58 360 17 gusting 22 8.7 5.0 Precipitation.
2015-Mar-01 10:44 350 13 gusting 26 7.0 5.0 Precipitation.
2015-Mar-01 10:42 350 15 gusting 26 5.2 5.0 Precipitation. Mist.
2015-Mar-01 10:08 360 14 7.0 5.0 Precipitation.
2015-Mar-01 10:00 360 14 6.1 5.0 Precipitation.
2015-Mar-01 09:58 360 14 6.1 5.0 Precipitation.
2015-Mar-01 09:50 360 13 7.0 5.0 Precipitation.
2015-Mar-01 09:44 360 13 6.1 5.0 Precipitation.
2015-Mar-01 09:40 360 13 6.1 5.0 Precipitation.
2015-Mar-01 09:08 010 9 4.3 5.0 Precipitation. Mist.
2015-Mar-01 09:00 010 8 3.5 5.0 Light rain. Mist.
2015-Mar-01 08:58 020 9 3.5 5.0 Rain. Mist.
2015-Mar-01 08:44 360 9 2.6 5.0 Heavy rain. Mist.
2015-Mar-01 08:20 360 7 2.2 4.0 Rain. Mist.
2015-Mar-01 08:14 350 8 2.6 4.0 Rain. Mist.
2015-Mar-01 08:12 360 8 2.2 4.0 Light rain. Mist.
2015-Mar-01 08:08 360 9 2.2 4.0 Heavy rain. Mist.
2015-Mar-01 08:06 360 8 1.7 4.0 Heavy rain. Mist.
2015-Mar-01 08:04 010 8 2.2 4.0 Heavy rain. Mist.
2015-Mar-01 08:02 360 7 1.7 4.0 Heavy rain. Mist.
2015-Mar-01 07:58 360 7 2.2 4.0 Light rain. Mist.
2015-Mar-01 07:30 020 6 2.2 4.0 Precipitation. Mist.
2015-Mar-01 07:24 020 6 1.7 4.0 Precipitation. Mist.
2015-Mar-01 07:22 020 6 1.5 4.0 Precipitation. Mist.
2015-Mar-01 07:14 040 6 1.7 4.0 Precipitation. Mist.
2015-Mar-01 07:12 040 6 2.2 4.0 Precipitation. Mist.
2015-Mar-01 06:58 020 5 1.7 5.0 Precipitation. Mist.
2015-Mar-01 06:41 020 6 1.7 5.0 Precipitation. Mist.
2015-Mar-01 06:33 010 5 1.7 4.0 Precipitation. Mist.
2015-Mar-01 06:31 020 5 1.7 4.0 Precipitation. Mist.
2015-Mar-01 06:24 350 1 2.2 4.0 Light rain. Mist.
2015-Mar-01 06:18 360 3 1.7 4.0 Rain. Mist.
2015-Mar-01 06:14 360 3 1.7 4.0 Precipitation. Mist.
2015-Mar-01 05:58 040 4 2.2 4.0 Precipitation. Mist.
2015-Mar-01 05:56 040 4 2.2 4.0 Precipitation. Mist.
2015-Mar-01 05:50 040 5 2.6 4.0 Precipitation. Mist.
2015-Mar-01 05:44 030 3 2.2 4.0 Precipitation. Mist.
2015-Mar-01 05:42 040 3 2.2 4.0 Precipitation. Mist.
2015-Mar-01 05:40 040 3 2.6 4.0 Precipitation. Mist.
2015-Mar-01 05:28 050 4 2.6 4.0 Precipitation. Mist.
2015-Mar-01 05:24 040 4 2.6 4.0 Precipitation. Mist.
2015-Mar-01 05:08 010 4 3.5 4.0 Precipitation. Mist.
2015-Mar-01 04:58 030 4 3.5 4.0 Precipitation. Mist.
2015-Mar-01 04:48 030 4 3.5 4.0 Precipitation. Mist.
2015-Mar-01 04:40 030 3 3.5 4.0 Precipitation. Mist.
2015-Mar-01 04:38 010 3 2.6 4.0 Precipitation. Mist.
2015-Mar-01 04:32 010 3 2.6 4.0 Precipitation. Mist.
2015-Mar-01 04:16 020 3 3.5 4.0 Precipitation. Mist.
2015-Mar-01 04:12 030 3 3.5 4.0 Precipitation. Mist.
2015-Mar-01 04:08 020 4 3.5 4.0 Precipitation. Mist.
2015-Mar-01 03:58 040 4 3.5 4.0 Precipitation. Mist.
2015-Mar-01 03:29 050 6 3.5 4.0 Precipitation. Mist.
2015-Mar-01 02:58 020 6 6.1 4.0 Precipitation.
2015-Mar-01 02:24 030 6 5.2 4.0 Light rain. Mist.
2015-Mar-01 02:18 040 7 4.3 4.0 Precipitation. Mist.
2015-Mar-01 02:16 040 7 4.3 4.0 Precipitation. Mist.
2015-Mar-01 02:10 030 7 5.2 4.0 Light rain. Mist.
2015-Mar-01 01:58 020 5 6.1 5.0 Precipitation.
2015-Mar-01 01:55 010 5 5.2 5.0 Precipitation. Mist.
2015-Mar-01 01:53 010 5 5.2 5.0 Precipitation.
2015-Mar-01 01:51 010 6 5.2 5.0 Precipitation.
2015-Mar-01 01:29 360 6 8.7 5.0 Light drizzle.
2015-Mar-01 01:27 360 5 8.7 5.0
2015-Mar-01 01:15 050 3 8.7 5.0
2015-Mar-01 00:58 010 4 8.7 5.0 Light rain.
2015-Mar-01 00:44 030 3 8.7 5.0 Light rain.